Hourly Data Report for October 12, 2020

MUSKOKA
ONTARIO
Current Station Operator: NAVCAN

44°58'29.000" N
79°18'12.000" W
281.90 m
6115529
71532
YQA

Download Data

Hourly Data (October 2020)
Hourly Data Report for October 12, 2020
TIME Temp Definition
°C
Dew Point Definition
°C
Rel Hum Definition
%
Wind Dir Definition
10's deg

Wind Spd Definition
km/h
Visibility Definition
km
Stn Press Definition
kPa
Hmdx Definition


Wind Chill Definition


Weather Definition


00:00 4.2 -1.6 66 11 9 16.1 98.74     LegendNANA
01:00 3.8 -1.6 68 9 9 16.1 98.69     LegendNANA
02:00 3.7 -1.9 67 10 11 16.1 98.61     LegendNANA
03:00 4.1 -2.1 64 10 13 16.1 98.53     LegendNANA
04:00 4.5 -1.9 63 11 13 16.1 98.49     LegendNANA
05:00 4.7 -1.5 64 11 11 16.1 98.49     LegendNANA
06:00 4.5 -0.9 68 11 9 16.1 98.51     LegendNANA
07:00 5.3 0.5 71 12 13 16.1 98.48     LegendNANA
08:00 7.6 2.3 69 11 13 16.1 98.45     LegendNANA
09:00 9.4 3.6 67 12 18 16.1 98.41     LegendNANA
10:00 11.8 5.4 65 12 17 16.1 98.36     LegendNANA
11:00 12.0 6.1 67 13 22 16.1 98.29     LegendNANA
12:00 13.8 7.5 66 13 22 16.1 98.17     LegendNANA
13:00 14.2 8.5 68 13 22 16.1 98.11     LegendNANA
14:00 14.3 8.7 69 13 17 16.1 98.05     LegendNANA
15:00 14.1 9.0 71 11 22 16.1 97.92     LegendNANA
16:00 13.9 9.4 74 12 28 16.1 97.85     LegendNANA
17:00 12.6 9.6 82 13 26 16.1 97.79     LegendNANA
18:00 11.9 9.5 85 11 18 16.1 97.81     LegendNANA
19:00 12.2 8.9 80 12 26 16.1 97.73     LegendNANA
20:00 12.5 9.2 80 11 24 16.1 97.68     LegendNANA
21:00 12.6 10.0 84 12 24 16.1 97.69     LegendNANA
22:00 12.3 9.7 84 13 35 16.1 97.66     LegendNANA
23:00 11.3 9.9 91 12 21 16.1 97.57     Rain

Notes on Data Quality.

Legend

  • E = Estimated
  • M = Missing
  • NA = Not Available*
  • [empty] = Indicates an unobserved value
Date modified: